Information on these data can be found in provided Readme document
Contact Info: Zachary Fasnacht (zachary.fasnacht@ssaihq.com); Nickolay Krotkov (nickolay.a.krotkov@nasa.gov); Lok Lamsal (lok.lamsal@nasa.gov)

FillValue: -999.
ScaleFactor: 1e15
Units: molecules/cm^2

Date(yyyy-mm-dd),City,Country,LonCenter,LatCenter,BoundingCoordinates,Median,Q1,Q3,Mean,Baseline_Median,Baseline_Q1,Baseline_Q3,Baseline_Mean,NumGoodSamples,NumTotalSamples
2015-01-01,Iquique,Chile,-70.1167,-20.1667,[-70.6167 -20.6667 -69.6167 -19.6667],0.282,-0.037,0.637,0.302,0.324,-0.019,0.667,0.335,247.0,563.0
2015-01-02,Iquique,Chile,-70.1167,-20.1667,[-70.6167 -20.6667 -69.6167 -19.6667],0.285,-0.04,0.637,0.287,0.324,-0.023,0.666,0.333,267.0,533.0
2015-01-03,Iquique,Chile,-70.1167,-20.1667,[-70.6167 -20.6667 -69.6167 -19.6667],0.305,-0.002,0.715,0.312,0.319,-0.019,0.682,0.334,237.0,541.0
2015-01-04,Iquique,Chile,-70.1167,-20.1667,[-70.6167 -20.6667 -69.6167 -19.6667],0.392,0.067,0.746,0.376,0.349,-0.01,0.696,0.349,245.0,536.0
2015-01-05,Iquique,Chile,-70.1167,-20.1667,[-70.6167 -20.6667 -69.6167 -19.6667],0.393,0.065,0.746,0.378,0.335,-0.017,0.684,0.341,259.0,564.0
2015-01-06,Iquique,Chile,-70.1167,-20.1667,[-70.6167 -20.6667 -69.6167 -19.6667],0.364,0.065,0.715,0.371,0.32,-0.017,0.681,0.335,239.0,547.0
2015-01-07,Iquique,Chile,-70.1167,-20.1667,[-70.6167 -20.6667 -69.6167 -19.6667],0.41,0.091,0.76,0.408,0.336,0.0,0.685,0.357,244.0,551.0
2015-01-08,Iquique,Chile,-70.1167,-20.1667,[-70.6167 -20.6667 -69.6167 -19.6667],0.381,0.038,0.707,0.343,0.31,-0.033,0.684,0.333,249.0,559.0
2015-01-09,Iquique,Chile,-70.1167,-20.1667,[-70.6167 -20.6667 -69.6167 -19.6667],0.372,0.038,0.707,0.343,0.311,-0.036,0.68,0.333,248.0,514.0
2015-01-10,Iquique,Chile,-70.1167,-20.1667,[-70.6167 -20.6667 -69.6167 -19.6667],0.337,-0.016,0.61,0.286,0.315,-0.049,0.679,0.333,219.0,527.0
2015-01-11,Iquique,Chile,-70.1167,-20.1667,[-70.6167 -20.6667 -69.6167 -19.6667],0.335,-0.002,0.627,0.292,0.307,-0.041,0.692,0.332,237.0,508.0
2015-01-12,Iquique,Chile,-70.1167,-20.1667,[-70.6167 -20.6667 -69.6167 -19.6667],0.337,0.003,0.635,0.296,0.342,-0.034,0.715,0.354,232.0,528.0
2015-01-13,Iquique,Chile,-70.1167,-20.1667,[-70.6167 -20.6667 -69.6167 -19.6667],0.317,-0.016,0.605,0.278,0.355,-0.043,0.736,0.356,214.0,515.0
2015-01-14,Iquique,Chile,-70.1167,-20.1667,[-70.6167 -20.6667 -69.6167 -19.6667],0.317,-0.031,0.605,0.274,0.354,-0.041,0.738,0.363,240.0,532.0
2015-01-15,Iquique,Chile,-70.1167,-20.1667,[-70.6167 -20.6667 -69.6167 -19.6667],0.369,0.03,0.67,0.335,0.373,-0.015,0.756,0.391,234.0,523.0
2015-01-16,Iquique,Chile,-70.1167,-20.1667,[-70.6167 -20.6667 -69.6167 -19.6667],0.349,0.004,0.646,0.319,0.365,-0.022,0.73,0.387,241.0,518.0
2015-01-17,Iquique,Chile,-70.1167,-20.1667,[-70.6167 -20.6667 -69.6167 -19.6667],0.363,0.038,0.646,0.341,0.363,-0.014,0.736,0.392,243.0,536.0
2015-01-18,Iquique,Chile,-70.1167,-20.1667,[-70.6167 -20.6667 -69.6167 -19.6667],0.325,0.007,0.636,0.337,0.388,0.0,0.744,0.402,262.0,506.0
2015-01-19,Iquique,Chile,-70.1167,-20.1667,[-70.6167 -20.6667 -69.6167 -19.6667],0.227,-0.029,0.615,0.291,0.354,-0.017,0.733,0.389,231.0,512.0
2015-01-20,Iquique,Chile,-70.1167,-20.1667,[-70.6167 -20.6667 -69.6167 -19.6667],0.363,0.026,0.678,0.379,0.4,0.01,0.745,0.414,244.0,506.0
2015-01-21,Iquique,Chile,-70.1167,-20.1667,[-70.6167 -20.6667 -69.6167 -19.6667],0.387,0.007,0.683,0.385,0.402,0.009,0.747,0.416,258.0,536.0
2015-01-22,Iquique,Chile,-70.1167,-20.1667,[-70.6167 -20.6667 -69.6167 -19.6667],0.325,0.007,0.68,0.369,0.381,-0.004,0.741,0.399,247.0,520.0
2015-01-23,Iquique,Chile,-70.1167,-20.1667,[-70.6167 -20.6667 -69.6167 -19.6667],0.415,0.057,0.692,0.407,0.415,0.002,0.739,0.4,252.0,524.0
2015-01-24,Iquique,Chile,-70.1167,-20.1667,[-70.6167 -20.6667 -69.6167 -19.6667],0.408,0.039,0.7,0.397,0.432,0.023,0.749,0.412,274.0,557.0
2015-01-25,Iquique,Chile,-70.1167,-20.1667,[-70.6167 -20.6667 -69.6167 -19.6667],0.386,0.031,0.7,0.392,0.41,0.013,0.73,0.402,292.0,537.0
2015-01-26,Iquique,Chile,-70.1167,-20.1667,[-70.6167 -20.6667 -69.6167 -19.6667],0.415,0.026,0.7,0.4,0.406,0.02,0.74,0.405,275.0,548.0
2015-01-27,Iquique,Chile,-70.1167,-20.1667,[-70.6167 -20.6667 -69.6167 -19.6667],0.424,0.031,0.729,0.422,0.386,-0.001,0.729,0.39,299.0,528.0
2015-01-28,Iquique,Chile,-70.1167,-20.1667,[-70.6167 -20.6667 -69.6167 -19.6667],0.478,0.057,0.777,0.447,0.395,0.007,0.738,0.395,287.0,548.0
2015-01-29,Iquique,Chile,-70.1167,-20.1667,[-70.6167 -20.6667 -69.6167 -19.6667],0.464,0.087,0.742,0.453,0.401,0.018,0.739,0.398,263.0,536.0
2015-01-30,Iquique,Chile,-70.1167,-20.1667,[-70.6167 -20.6667 -69.6167 -19.6667],0.464,0.099,0.784,0.463,0.38,0.01,0.739,0.383,279.0,555.0
2015-01-31,Iquique,Chile,-70.1167,-20.1667,[-70.6167 -20.6667 -69.6167 -19.6667],0.488,0.127,0.774,0.475,0.381,0.011,0.741,0.378,257.0,546.0
2015-02-01,Iquique,Chile,-70.1167,-20.1667,[-70.6167 -20.6667 -69.6167 -19.6667],0.459,0.128,0.742,0.459,0.386,0.014,0.718,0.375,255.0,541.0
2015-02-02,Iquique,Chile,-70.1167,-20.1667,[-70.6167 -20.6667 -69.6167 -19.6667],0.497,0.176,0.801,0.488,0.392,0.026,0.736,0.385,250.0,557.0
2015-02-03,Iquique,Chile,-70.1167,-20.1667,[-70.6167 -20.6667 -69.6167 -19.6667],0.464,0.127,0.757,0.451,0.408,0.045,0.736,0.397,260.0,529.0
2015-02-04,Iquique,Chile,-70.1167,-20.1667,[-70.6167 -20.6667 -69.6167 -19.6667],0.386,0.031,0.736,0.389,0.375,0.025,0.721,0.376,225.0,536.0
2015-02-05,Iquique,Chile,-70.1167,-20.1667,[-70.6167 -20.6667 -69.6167 -19.6667],0.395,0.041,0.71,0.388,0.368,0.012,0.704,0.365,235.0,529.0
2015-02-06,Iquique,Chile,-70.1167,-20.1667,[-70.6167 -20.6667 -69.6167 -19.6667],0.386,0.041,0.691,0.391,0.361,0.009,0.706,0.371,242.0,557.0
2015-02-07,Iquique,Chile,-70.1167,-20.1667,[-70.6167 -20.6667 -69.6167 -19.6667],0.37,0.031,0.691,0.393,0.356,0.013,0.706,0.375,231.0,540.0
2015-02-08,Iquique,Chile,-70.1167,-20.1667,[-70.6167 -20.6667 -69.6167 -19.6667],0.357,0.031,0.689,0.401,0.323,-0.009,0.691,0.357,238.0,542.0
2015-02-09,Iquique,Chile,-70.1167,-20.1667,[-70.6167 -20.6667 -69.6167 -19.6667],0.37,0.041,0.708,0.404,0.335,-0.012,0.699,0.353,242.0,550.0
2015-02-10,Iquique,Chile,-70.1167,-20.1667,[-70.6167 -20.6667 -69.6167 -19.6667],0.37,0.041,0.703,0.403,0.331,-0.004,0.701,0.36,241.0,507.0
2015-02-11,Iquique,Chile,-70.1167,-20.1667,[-70.6167 -20.6667 -69.6167 -19.6667],0.355,0.041,0.689,0.372,0.331,-0.006,0.699,0.359,217.0,521.0
2015-02-12,Iquique,Chile,-70.1167,-20.1667,[-70.6167 -20.6667 -69.6167 -19.6667],0.343,0.041,0.651,0.36,0.323,-0.008,0.702,0.356,246.0,502.0
2015-02-13,Iquique,Chile,-70.1167,-20.1667,[-70.6167 -20.6667 -69.6167 -19.6667],0.355,-0.008,0.67,0.358,0.328,-0.019,0.678,0.347,235.0,524.0
2015-02-14,Iquique,Chile,-70.1167,-20.1667,[-70.6167 -20.6667 -69.6167 -19.6667],0.343,-0.014,0.644,0.35,0.327,-0.028,0.671,0.343,230.0,512.0
2015-02-15,Iquique,Chile,-70.1167,-20.1667,[-70.6167 -20.6667 -69.6167 -19.6667],0.343,0.012,0.651,0.355,0.319,-0.025,0.672,0.34,262.0,532.0
2015-02-16,Iquique,Chile,-70.1167,-20.1667,[-70.6167 -20.6667 -69.6167 -19.6667],0.355,0.002,0.681,0.368,0.316,-0.029,0.685,0.343,254.0,524.0
2015-02-17,Iquique,Chile,-70.1167,-20.1667,[-70.6167 -20.6667 -69.6167 -19.6667],0.355,-0.006,0.651,0.362,0.306,-0.033,0.675,0.331,264.0,522.0
2015-02-18,Iquique,Chile,-70.1167,-20.1667,[-70.6167 -20.6667 -69.6167 -19.6667],0.37,0.041,0.689,0.393,0.307,-0.028,0.687,0.332,276.0,540.0
2015-02-19,Iquique,Chile,-70.1167,-20.1667,[-70.6167 -20.6667 -69.6167 -19.6667],0.355,0.041,0.685,0.381,0.315,-0.005,0.698,0.343,295.0,512.0
2015-02-20,Iquique,Chile,-70.1167,-20.1667,[-70.6167 -20.6667 -69.6167 -19.6667],0.335,0.025,0.691,0.383,0.319,-0.008,0.688,0.348,260.0,519.0
2015-02-21,Iquique,Chile,-70.1167,-20.1667,[-70.6167 -20.6667 -69.6167 -19.6667],0.401,0.062,0.726,0.422,0.342,0.011,0.701,0.36,270.0,515.0
2015-02-22,Iquique,Chile,-70.1167,-20.1667,[-70.6167 -20.6667 -69.6167 -19.6667],0.401,0.073,0.726,0.421,0.339,0.008,0.703,0.356,277.0,543.0
2015-02-23,Iquique,Chile,-70.1167,-20.1667,[-70.6167 -20.6667 -69.6167 -19.6667],0.397,0.074,0.719,0.407,0.342,0.015,0.707,0.36,266.0,529.0
2015-02-24,Iquique,Chile,-70.1167,-20.1667,[-70.6167 -20.6667 -69.6167 -19.6667],0.386,0.076,0.691,0.413,0.331,0.01,0.688,0.359,273.0,533.0
2015-02-25,Iquique,Chile,-70.1167,-20.1667,[-70.6167 -20.6667 -69.6167 -19.6667],0.371,0.073,0.683,0.397,0.325,0.014,0.679,0.344,299.0,566.0
2015-02-26,Iquique,Chile,-70.1167,-20.1667,[-70.6167 -20.6667 -69.6167 -19.6667],0.378,0.073,0.681,0.392,0.343,0.015,0.677,0.348,318.0,545.0
2015-02-27,Iquique,Chile,-70.1167,-20.1667,[-70.6167 -20.6667 -69.6167 -19.6667],0.392,0.068,0.726,0.405,0.33,0.016,0.68,0.351,290.0,557.0
2015-02-28,Iquique,Chile,-70.1167,-20.1667,[-70.6167 -20.6667 -69.6167 -19.6667],0.401,0.062,0.726,0.413,0.334,-0.003,0.689,0.351,315.0,535.0
2015-03-01,Iquique,Chile,-70.1167,-20.1667,[-70.6167 -20.6667 -69.6167 -19.6667],0.381,0.06,0.726,0.399,0.337,0.015,0.691,0.36,291.0,555.0
2015-03-02,Iquique,Chile,-70.1167,-20.1667,[-70.6167 -20.6667 -69.6167 -19.6667],0.362,-0.011,0.683,0.355,0.342,0.007,0.689,0.358,287.0,542.0
2015-03-03,Iquique,Chile,-70.1167,-20.1667,[-70.6167 -20.6667 -69.6167 -19.6667],0.33,-0.007,0.683,0.355,0.343,0.018,0.706,0.367,309.0,560.0
2015-03-04,Iquique,Chile,-70.1167,-20.1667,[-70.6167 -20.6667 -69.6167 -19.6667],0.33,0.012,0.703,0.356,0.342,0.026,0.699,0.362,296.0,551.0
2015-03-05,Iquique,Chile,-70.1167,-20.1667,[-70.6167 -20.6667 -69.6167 -19.6667],0.33,0.006,0.683,0.347,0.321,0.011,0.676,0.344,297.0,546.0
2015-03-06,Iquique,Chile,-70.1167,-20.1667,[-70.6167 -20.6667 -69.6167 -19.6667],0.362,0.012,0.683,0.364,0.323,0.005,0.653,0.336,300.0,563.0
2015-03-07,Iquique,Chile,-70.1167,-20.1667,[-70.6167 -20.6667 -69.6167 -19.6667],0.368,0.029,0.703,0.376,0.327,0.013,0.679,0.344,320.0,534.0
2015-03-08,Iquique,Chile,-70.1167,-20.1667,[-70.6167 -20.6667 -69.6167 -19.6667],0.326,-0.017,0.654,0.329,0.308,-0.002,0.646,0.323,284.0,539.0
2015-03-09,Iquique,Chile,-70.1167,-20.1667,[-70.6167 -20.6667 -69.6167 -19.6667],0.252,-0.067,0.604,0.28,0.296,-0.018,0.647,0.318,282.0,534.0
2015-03-10,Iquique,Chile,-70.1167,-20.1667,[-70.6167 -20.6667 -69.6167 -19.6667],0.269,-0.067,0.643,0.293,0.292,-0.023,0.659,0.321,290.0,562.0
2015-03-11,Iquique,Chile,-70.1167,-20.1667,[-70.6167 -20.6667 -69.6167 -19.6667],0.257,-0.067,0.643,0.295,0.289,-0.022,0.673,0.323,274.0,546.0
2015-03-12,Iquique,Chile,-70.1167,-20.1667,[-70.6167 -20.6667 -69.6167 -19.6667],0.281,-0.067,0.664,0.313,0.297,-0.016,0.678,0.329,268.0,547.0
2015-03-13,Iquique,Chile,-70.1167,-20.1667,[-70.6167 -20.6667 -69.6167 -19.6667],0.277,-0.067,0.682,0.318,0.271,-0.036,0.66,0.316,274.0,556.0
2015-03-14,Iquique,Chile,-70.1167,-20.1667,[-70.6167 -20.6667 -69.6167 -19.6667],0.277,-0.067,0.682,0.318,0.26,-0.033,0.649,0.303,273.0,511.0
2015-03-15,Iquique,Chile,-70.1167,-20.1667,[-70.6167 -20.6667 -69.6167 -19.6667],0.257,-0.092,0.641,0.293,0.279,-0.023,0.663,0.314,248.0,524.0
2015-03-16,Iquique,Chile,-70.1167,-20.1667,[-70.6167 -20.6667 -69.6167 -19.6667],0.277,-0.068,0.637,0.298,0.27,-0.039,0.666,0.306,267.0,505.0
2015-03-17,Iquique,Chile,-70.1167,-20.1667,[-70.6167 -20.6667 -69.6167 -19.6667],0.31,-0.024,0.664,0.34,0.285,-0.018,0.673,0.326,237.0,526.0
2015-03-18,Iquique,Chile,-70.1167,-20.1667,[-70.6167 -20.6667 -69.6167 -19.6667],0.312,-0.039,0.647,0.338,0.274,-0.029,0.678,0.315,203.0,514.0
2015-03-19,Iquique,Chile,-70.1167,-20.1667,[-70.6167 -20.6667 -69.6167 -19.6667],0.289,-0.067,0.664,0.334,0.274,-0.049,0.681,0.316,224.0,533.0
2015-03-20,Iquique,Chile,-70.1167,-20.1667,[-70.6167 -20.6667 -69.6167 -19.6667],0.289,-0.053,0.686,0.342,0.281,-0.044,0.689,0.323,214.0,527.0
2015-03-21,Iquique,Chile,-70.1167,-20.1667,[-70.6167 -20.6667 -69.6167 -19.6667],0.277,-0.123,0.684,0.3,0.28,-0.047,0.677,0.319,217.0,522.0
2015-03-22,Iquique,Chile,-70.1167,-20.1667,[-70.6167 -20.6667 -69.6167 -19.6667],0.229,-0.124,0.622,0.274,0.259,-0.064,0.659,0.3,219.0,539.0
2015-03-23,Iquique,Chile,-70.1167,-20.1667,[-70.6167 -20.6667 -69.6167 -19.6667],0.252,-0.123,0.636,0.292,0.266,-0.07,0.664,0.308,238.0,511.0
2015-03-24,Iquique,Chile,-70.1167,-20.1667,[-70.6167 -20.6667 -69.6167 -19.6667],0.315,-0.007,0.704,0.371,0.257,-0.062,0.649,0.301,215.0,517.0
2015-03-25,Iquique,Chile,-70.1167,-20.1667,[-70.6167 -20.6667 -69.6167 -19.6667],0.293,0.056,0.666,0.365,0.256,-0.036,0.64,0.302,230.0,511.0
2015-03-26,Iquique,Chile,-70.1167,-20.1667,[-70.6167 -20.6667 -69.6167 -19.6667],0.299,0.01,0.669,0.34,0.261,-0.048,0.646,0.294,243.0,539.0
2015-03-27,Iquique,Chile,-70.1167,-20.1667,[-70.6167 -20.6667 -69.6167 -19.6667],0.299,0.026,0.631,0.33,0.264,-0.057,0.645,0.295,242.0,526.0
2015-03-28,Iquique,Chile,-70.1167,-20.1667,[-70.6167 -20.6667 -69.6167 -19.6667],0.296,-0.007,0.631,0.3,0.285,-0.044,0.666,0.307,244.0,529.0
2015-03-29,Iquique,Chile,-70.1167,-20.1667,[-70.6167 -20.6667 -69.6167 -19.6667],0.293,-0.024,0.629,0.283,0.29,-0.063,0.681,0.315,270.0,561.0
2015-03-30,Iquique,Chile,-70.1167,-20.1667,[-70.6167 -20.6667 -69.6167 -19.6667],0.298,-0.036,0.635,0.308,0.276,-0.054,0.672,0.318,285.0,537.0
2015-03-31,Iquique,Chile,-70.1167,-20.1667,[-70.6167 -20.6667 -69.6167 -19.6667],0.293,-0.056,0.636,0.304,0.278,-0.054,0.68,0.327,266.0,548.0
2015-04-01,Iquique,Chile,-70.1167,-20.1667,[-70.6167 -20.6667 -69.6167 -19.6667],0.298,-0.024,0.674,0.319,0.276,-0.061,0.688,0.316,278.0,528.0
2015-04-02,Iquique,Chile,-70.1167,-20.1667,[-70.6167 -20.6667 -69.6167 -19.6667],0.298,-0.024,0.674,0.319,0.28,-0.056,0.693,0.323,278.0,549.0
2015-04-03,Iquique,Chile,-70.1167,-20.1667,[-70.6167 -20.6667 -69.6167 -19.6667],0.298,-0.036,0.666,0.31,0.292,-0.06,0.717,0.333,246.0,537.0
2015-04-04,Iquique,Chile,-70.1167,-20.1667,[-70.6167 -20.6667 -69.6167 -19.6667],0.299,-0.036,0.674,0.322,0.295,-0.072,0.735,0.341,251.0,552.0
2015-04-05,Iquique,Chile,-70.1167,-20.1667,[-70.6167 -20.6667 -69.6167 -19.6667],0.345,0.026,0.692,0.349,0.311,-0.053,0.756,0.348,235.0,546.0
2015-04-06,Iquique,Chile,-70.1167,-20.1667,[-70.6167 -20.6667 -69.6167 -19.6667],0.327,0.024,0.692,0.345,0.332,-0.053,0.757,0.352,235.0,541.0
2015-04-07,Iquique,Chile,-70.1167,-20.1667,[-70.6167 -20.6667 -69.6167 -19.6667],0.32,0.026,0.71,0.345,0.341,-0.053,0.765,0.352,239.0,556.0
2015-04-08,Iquique,Chile,-70.1167,-20.1667,[-70.6167 -20.6667 -69.6167 -19.6667],0.32,0.02,0.736,0.353,0.341,-0.063,0.782,0.354,259.0,528.0
2015-04-09,Iquique,Chile,-70.1167,-20.1667,[-70.6167 -20.6667 -69.6167 -19.6667],0.358,-0.04,0.753,0.348,0.349,-0.086,0.776,0.344,218.0,534.0
2015-04-10,Iquique,Chile,-70.1167,-20.1667,[-70.6167 -20.6667 -69.6167 -19.6667],0.354,-0.012,0.736,0.355,0.341,-0.092,0.777,0.348,210.0,528.0
2015-04-11,Iquique,Chile,-70.1167,-20.1667,[-70.6167 -20.6667 -69.6167 -19.6667],0.327,-0.02,0.752,0.358,0.322,-0.098,0.768,0.332,207.0,558.0
2015-04-12,Iquique,Chile,-70.1167,-20.1667,[-70.6167 -20.6667 -69.6167 -19.6667],0.354,-0.012,0.739,0.358,0.319,-0.103,0.783,0.333,193.0,542.0
2015-04-13,Iquique,Chile,-70.1167,-20.1667,[-70.6167 -20.6667 -69.6167 -19.6667],0.369,0.011,0.755,0.368,0.336,-0.077,0.801,0.386,197.0,546.0
2015-04-14,Iquique,Chile,-70.1167,-20.1667,[-70.6167 -20.6667 -69.6167 -19.6667],0.4,0.011,0.755,0.361,0.322,-0.121,0.775,0.361,198.0,559.0
2015-04-15,Iquique,Chile,-70.1167,-20.1667,[-70.6167 -20.6667 -69.6167 -19.6667],0.4,0.011,0.755,0.361,0.32,-0.111,0.764,0.354,198.0,515.0
2015-04-16,Iquique,Chile,-70.1167,-20.1667,[-70.6167 -20.6667 -69.6167 -19.6667],0.369,-0.015,0.755,0.345,0.334,-0.098,0.786,0.371,187.0,526.0
2015-04-17,Iquique,Chile,-70.1167,-20.1667,[-70.6167 -20.6667 -69.6167 -19.6667],0.316,-0.055,0.755,0.343,0.336,-0.114,0.747,0.358,201.0,507.0
2015-04-18,Iquique,Chile,-70.1167,-20.1667,[-70.6167 -20.6667 -69.6167 -19.6667],0.316,-0.055,0.755,0.343,0.315,-0.113,0.723,0.339,201.0,525.0
2015-04-19,Iquique,Chile,-70.1167,-20.1667,[-70.6167 -20.6667 -69.6167 -19.6667],0.274,-0.118,0.656,0.298,0.31,-0.129,0.71,0.334,205.0,516.0
2015-04-20,Iquique,Chile,-70.1167,-20.1667,[-70.6167 -20.6667 -69.6167 -19.6667],0.263,-0.151,0.656,0.268,0.3,-0.134,0.705,0.323,229.0,533.0
2015-04-21,Iquique,Chile,-70.1167,-20.1667,[-70.6167 -20.6667 -69.6167 -19.6667],0.263,-0.152,0.635,0.249,0.287,-0.134,0.684,0.319,217.0,525.0
2015-04-22,Iquique,Chile,-70.1167,-20.1667,[-70.6167 -20.6667 -69.6167 -19.6667],0.263,-0.16,0.655,0.254,0.287,-0.128,0.695,0.327,217.0,521.0
2015-04-23,Iquique,Chile,-70.1167,-20.1667,[-70.6167 -20.6667 -69.6167 -19.6667],0.274,-0.154,0.655,0.25,0.327,-0.123,0.711,0.347,218.0,537.0
2015-04-24,Iquique,Chile,-70.1167,-20.1667,[-70.6167 -20.6667 -69.6167 -19.6667],0.286,-0.162,0.656,0.258,0.32,-0.129,0.701,0.344,237.0,509.0
2015-04-25,Iquique,Chile,-70.1167,-20.1667,[-70.6167 -20.6667 -69.6167 -19.6667],0.274,-0.185,0.682,0.253,0.315,-0.135,0.702,0.342,218.0,515.0
2015-04-26,Iquique,Chile,-70.1167,-20.1667,[-70.6167 -20.6667 -69.6167 -19.6667],0.392,-0.098,0.686,0.292,0.359,-0.107,0.705,0.364,238.0,509.0
2015-04-27,Iquique,Chile,-70.1167,-20.1667,[-70.6167 -20.6667 -69.6167 -19.6667],0.392,-0.08,0.682,0.308,0.332,-0.112,0.707,0.366,241.0,537.0
2015-04-28,Iquique,Chile,-70.1167,-20.1667,[-70.6167 -20.6667 -69.6167 -19.6667],0.354,-0.076,0.636,0.288,0.29,-0.126,0.668,0.292,221.0,523.0
2015-04-29,Iquique,Chile,-70.1167,-20.1667,[-70.6167 -20.6667 -69.6167 -19.6667],0.264,-0.076,0.622,0.263,0.286,-0.129,0.663,0.289,225.0,529.0
2015-04-30,Iquique,Chile,-70.1167,-20.1667,[-70.6167 -20.6667 -69.6167 -19.6667],0.342,-0.055,0.644,0.309,0.305,-0.124,0.682,0.303,248.0,563.0
2015-05-01,Iquique,Chile,-70.1167,-20.1667,[-70.6167 -20.6667 -69.6167 -19.6667],0.354,-0.054,0.675,0.326,0.32,-0.115,0.666,0.296,261.0,548.0
2015-05-02,Iquique,Chile,-70.1167,-20.1667,[-70.6167 -20.6667 -69.6167 -19.6667],0.372,-0.043,0.682,0.328,0.318,-0.12,0.67,0.294,251.0,558.0
2015-05-03,Iquique,Chile,-70.1167,-20.1667,[-70.6167 -20.6667 -69.6167 -19.6667],0.388,-0.013,0.686,0.348,0.339,-0.098,0.69,0.316,261.0,541.0
2015-05-04,Iquique,Chile,-70.1167,-20.1667,[-70.6167 -20.6667 -69.6167 -19.6667],0.4,0.023,0.714,0.377,0.326,-0.079,0.663,0.302,239.0,558.0
2015-05-05,Iquique,Chile,-70.1167,-20.1667,[-70.6167 -20.6667 -69.6167 -19.6667],0.372,-0.003,0.69,0.352,0.33,-0.083,0.686,0.314,229.0,545.0
2015-05-06,Iquique,Chile,-70.1167,-20.1667,[-70.6167 -20.6667 -69.6167 -19.6667],0.388,0.004,0.719,0.384,0.345,-0.088,0.69,0.321,246.0,563.0
2015-05-07,Iquique,Chile,-70.1167,-20.1667,[-70.6167 -20.6667 -69.6167 -19.6667],0.388,0.012,0.704,0.382,0.333,-0.097,0.667,0.303,233.0,555.0
2015-05-08,Iquique,Chile,-70.1167,-20.1667,[-70.6167 -20.6667 -69.6167 -19.6667],0.362,0.004,0.677,0.342,0.334,-0.074,0.668,0.302,237.0,551.0
2015-05-09,Iquique,Chile,-70.1167,-20.1667,[-70.6167 -20.6667 -69.6167 -19.6667],0.351,-0.004,0.664,0.33,0.343,-0.056,0.671,0.313,230.0,568.0
2015-05-10,Iquique,Chile,-70.1167,-20.1667,[-70.6167 -20.6667 -69.6167 -19.6667],0.351,-0.011,0.664,0.338,0.338,-0.052,0.676,0.312,248.0,540.0
2015-05-11,Iquique,Chile,-70.1167,-20.1667,[-70.6167 -20.6667 -69.6167 -19.6667],0.293,-0.043,0.664,0.312,0.306,-0.073,0.675,0.298,212.0,544.0
2015-05-12,Iquique,Chile,-70.1167,-20.1667,[-70.6167 -20.6667 -69.6167 -19.6667],0.298,-0.013,0.66,0.326,0.293,-0.08,0.658,0.283,216.0,540.0
2015-05-13,Iquique,Chile,-70.1167,-20.1667,[-70.6167 -20.6667 -69.6167 -19.6667],0.351,-0.002,0.699,0.366,0.329,-0.056,0.68,0.31,213.0,567.0
2015-05-14,Iquique,Chile,-70.1167,-20.1667,[-70.6167 -20.6667 -69.6167 -19.6667],0.328,0.004,0.677,0.358,0.364,-0.041,0.712,0.326,202.0,548.0
2015-05-15,Iquique,Chile,-70.1167,-20.1667,[-70.6167 -20.6667 -69.6167 -19.6667],0.284,-0.066,0.657,0.287,0.322,-0.057,0.671,0.296,205.0,552.0
2015-05-16,Iquique,Chile,-70.1167,-20.1667,[-70.6167 -20.6667 -69.6167 -19.6667],0.284,-0.112,0.646,0.254,0.301,-0.107,0.672,0.277,211.0,556.0
2015-05-17,Iquique,Chile,-70.1167,-20.1667,[-70.6167 -20.6667 -69.6167 -19.6667],0.284,-0.112,0.642,0.252,0.315,-0.105,0.677,0.288,207.0,512.0
2015-05-18,Iquique,Chile,-70.1167,-20.1667,[-70.6167 -20.6667 -69.6167 -19.6667],0.207,-0.157,0.577,0.215,0.295,-0.111,0.671,0.282,200.0,522.0
2015-05-19,Iquique,Chile,-70.1167,-20.1667,[-70.6167 -20.6667 -69.6167 -19.6667],0.207,-0.157,0.577,0.215,0.308,-0.116,0.705,0.295,200.0,504.0
2015-05-20,Iquique,Chile,-70.1167,-20.1667,[-70.6167 -20.6667 -69.6167 -19.6667],0.236,-0.105,0.646,0.259,0.284,-0.115,0.684,0.291,177.0,523.0
2015-05-21,Iquique,Chile,-70.1167,-20.1667,[-70.6167 -20.6667 -69.6167 -19.6667],0.225,-0.124,0.564,0.213,0.301,-0.109,0.706,0.305,170.0,512.0
2015-05-22,Iquique,Chile,-70.1167,-20.1667,[-70.6167 -20.6667 -69.6167 -19.6667],0.225,-0.173,0.564,0.21,0.299,-0.123,0.709,0.305,190.0,532.0
2015-05-23,Iquique,Chile,-70.1167,-20.1667,[-70.6167 -20.6667 -69.6167 -19.6667],0.218,-0.115,0.564,0.231,0.286,-0.101,0.69,0.303,174.0,523.0
2015-05-24,Iquique,Chile,-70.1167,-20.1667,[-70.6167 -20.6667 -69.6167 -19.6667],0.218,-0.124,0.564,0.229,0.295,-0.095,0.698,0.3,182.0,518.0
2015-05-25,Iquique,Chile,-70.1167,-20.1667,[-70.6167 -20.6667 -69.6167 -19.6667],0.218,-0.161,0.564,0.219,0.317,-0.098,0.704,0.309,185.0,534.0
2015-05-26,Iquique,Chile,-70.1167,-20.1667,[-70.6167 -20.6667 -69.6167 -19.6667],0.238,-0.124,0.577,0.255,0.304,-0.108,0.705,0.309,194.0,506.0
2015-05-27,Iquique,Chile,-70.1167,-20.1667,[-70.6167 -20.6667 -69.6167 -19.6667],0.197,-0.161,0.57,0.224,0.313,-0.093,0.72,0.32,174.0,511.0
2015-05-28,Iquique,Chile,-70.1167,-20.1667,[-70.6167 -20.6667 -69.6167 -19.6667],0.283,-0.074,0.592,0.269,0.337,-0.059,0.701,0.319,187.0,506.0
2015-05-29,Iquique,Chile,-70.1167,-20.1667,[-70.6167 -20.6667 -69.6167 -19.6667],0.291,-0.097,0.624,0.283,0.322,-0.087,0.692,0.318,184.0,534.0
2015-05-30,Iquique,Chile,-70.1167,-20.1667,[-70.6167 -20.6667 -69.6167 -19.6667],0.336,0.008,0.675,0.343,0.367,-0.053,0.722,0.342,169.0,517.0
2015-05-31,Iquique,Chile,-70.1167,-20.1667,[-70.6167 -20.6667 -69.6167 -19.6667],0.352,0.039,0.7,0.398,0.362,0.003,0.709,0.362,180.0,524.0
2015-06-01,Iquique,Chile,-70.1167,-20.1667,[-70.6167 -20.6667 -69.6167 -19.6667],0.396,0.04,0.75,0.406,0.366,-0.038,0.723,0.358,206.0,557.0
2015-06-02,Iquique,Chile,-70.1167,-20.1667,[-70.6167 -20.6667 -69.6167 -19.6667],0.457,0.073,0.807,0.461,0.38,-0.015,0.713,0.37,215.0,540.0
2015-06-03,Iquique,Chile,-70.1167,-20.1667,[-70.6167 -20.6667 -69.6167 -19.6667],0.457,0.073,0.807,0.46,0.383,-0.008,0.712,0.374,218.0,550.0
2015-06-04,Iquique,Chile,-70.1167,-20.1667,[-70.6167 -20.6667 -69.6167 -19.6667],0.507,0.122,0.808,0.485,0.404,0.032,0.721,0.393,229.0,531.0
2015-06-05,Iquique,Chile,-70.1167,-20.1667,[-70.6167 -20.6667 -69.6167 -19.6667],0.538,0.158,0.832,0.53,0.392,0.022,0.692,0.367,209.0,552.0
2015-06-06,Iquique,Chile,-70.1167,-20.1667,[-70.6167 -20.6667 -69.6167 -19.6667],0.512,0.156,0.808,0.508,0.401,0.035,0.713,0.375,198.0,541.0
2015-06-07,Iquique,Chile,-70.1167,-20.1667,[-70.6167 -20.6667 -69.6167 -19.6667],0.513,0.186,0.811,0.506,0.406,0.029,0.725,0.372,213.0,561.0
2015-06-08,Iquique,Chile,-70.1167,-20.1667,[-70.6167 -20.6667 -69.6167 -19.6667],0.518,0.186,0.811,0.513,0.413,0.025,0.734,0.381,202.0,554.0
2015-06-09,Iquique,Chile,-70.1167,-20.1667,[-70.6167 -20.6667 -69.6167 -19.6667],0.518,0.199,0.811,0.515,0.421,0.036,0.74,0.394,194.0,551.0
2015-06-10,Iquique,Chile,-70.1167,-20.1667,[-70.6167 -20.6667 -69.6167 -19.6667],0.512,0.156,0.8,0.486,0.423,0.046,0.748,0.407,208.0,567.0
2015-06-11,Iquique,Chile,-70.1167,-20.1667,[-70.6167 -20.6667 -69.6167 -19.6667],0.513,0.156,0.808,0.489,0.411,0.036,0.734,0.403,221.0,538.0
2015-06-12,Iquique,Chile,-70.1167,-20.1667,[-70.6167 -20.6667 -69.6167 -19.6667],0.557,0.097,0.832,0.49,0.421,0.016,0.759,0.414,201.0,544.0
2015-06-13,Iquique,Chile,-70.1167,-20.1667,[-70.6167 -20.6667 -69.6167 -19.6667],0.578,0.099,0.832,0.495,0.436,0.03,0.747,0.417,216.0,540.0
2015-06-14,Iquique,Chile,-70.1167,-20.1667,[-70.6167 -20.6667 -69.6167 -19.6667],0.567,0.077,0.857,0.519,0.434,0.017,0.767,0.426,223.0,568.0
2015-06-15,Iquique,Chile,-70.1167,-20.1667,[-70.6167 -20.6667 -69.6167 -19.6667],0.557,0.077,0.8,0.476,0.441,0.026,0.77,0.429,208.0,549.0